Theta_e
346 347 347 352 352 353 350 349 347 347 343 337 339 347 349 348 352 350 348 348 347 345 347 347 346 346 346 349 351 345 343 339 335 341 344 346 347 345 347 343 344 339 338
348 348 349 351 352 351 351 348 349 348 344 347 346 346 351 350 350 350 349 348 345 339 336 346 346 351 346 345 345 343 345 344 338 336 340 343 347 345 345 343 344 339 335
349 349 349 352 352 351 351 350 351 349 348 350 350 349 349 349 349 350 349 346 344 336 341 347 347 346 344 346 344 344 345 347 343 339 340 344 347 349 346 341 336 334 334
351 349 349 350 350 351 350 350 353 352 349 350 350 351 351 351 351 350 350 348 346 347 349 350 349 348 345 346 345 345 344 343 339 339 338 339 343 343 345 338 332 332 330
348 349 348 352 353 352 352 351 352 351 349 350 351 351 351 351 353 349 349 348 347 345 348 348 343 341 339 338 345 344 343 341 338 336 337 336 336 335 336 341 337 332 325
348 348 351 351 351 350 349 348 349 351 350 350 350 351 350 354 336 339 350 347 346 346 346 346 340 338 335 334 334 334 334 338 338 337 337 334 333 335 339 339 336 328 326
344 345 346 348 345 347 344 346 348 347 350 350 349 348 347 336 334 335 339 347 345 346 346 346 348 345 340 333 333 328 327 329 334 336 333 330 333 330 335 335 336 335 332
343 344 346 344 342 346 348 346 346 346 344 344 345 347 335 329 331 333 337 342 344 340 337 338 343 339 335 342 327 321 320 320 321 323 321 321 323 326 332 341 337 330 327
341 342 344 344 341 343 342 342 345 345 343 339 339 340 332 331 328 327 332 342 339 332 326 326 336 331 326 333 326 320 319 319 322 322 323 324 325 327 332 337 332 328 324
339 340 339 339 339 339 340 342 343 345 338 333 330 331 329 326 319 322 332 342 337 332 328 325 322 322 320 326 328 324 319 320 319 317 319 320 322 325 328 331 335 329 322
333 334 339 338 336 339 339 341 336 332 329 325 322 322 320 320 321 318 324 337 337 333 326 322 319 316 315 317 323 324 320 319 319 318 318 319 321 323 326 328 329 328 322
328 328 330 328 334 333 329 330 327 327 324 321 320 319 317 317 315 315 316 322 326 324 319 317 315 312 311 313 317 316 317 318 317 316 315 316 316 318 321 324 327 325 324
326 325 324 324 324 324 324 325 324 323 323 321 319 318 317 318 317 313 313 315 317 318 317 313 310 309 310 313 314 315 317 317 315 314 313 313 316 319 318 319 322 322 323
322 320 319 318 318 322 323 324 323 322 321 320 319 317 317 317 317 318 317 317 317 318 317 317 317 316 316 316 316 315 315 315 312 311 310 312 313 315 314 317 313 314 313
323 321 318 317 314 311 307 310 314 308 316 321 321 321 319 317 316 314 314 317 317 314 316 317 316 314 312 312 312 311 312 310 311 311 310 313 311 309 312 314 311 309 307
322 322 320 319 318 316 315 312 304 302 303 306 309 314 315 310 305 304 303 305 307 307 317 314 313 311 312 310 308 308 309 312 310 312 311 309 307 308 308 310 312 309 307
324 323 321 319 319 315 313 312 310 308 301 299 299 302 305 301 300 301 301 302 304 312 318 316 314 314 313 313 313 313 313 314 315 312 310 310 310 306 308 307 308 306 305
323 319 323 320 321 318 317 315 313 312 311 311 303 302 298 298 299 301 303 309 312 310 309 319 318 316 315 314 312 310 309 311 309 309 307 306 306 308 306 306 306 305 304
326 325 324 323 323 322 317 316 316 315 314 312 310 308 302 299 300 300 300 314 315 314 314 312 310 308 310 311 309 309 310 308 308 310 309 309 309 308 307 303 301 303 305
326 327 326 328 326 325 322 318 316 315 314 313 313 313 313 311 313 314 314 316 316 316 311 311 309 310 309 310 310 309 307 309 309 310 308 308 308 309 305 302 301 300 301
326 322 326 322 322 322 324 320 319 316 314 314 314 315 309 313 315 315 318 316 321 317 311 311 311 310 310 310 311 308 308 309 309 310 307 307 306 307 304 304 303 303 304
327 318 316 318 318 317 317 322 320 319 318 317 316 314 305 314 317 317 315 316 316 317 315 314 312 311 310 311 310 310 309 310 308 308 307 308 306 306 305 303 303 303 301
322 318 315 314 313 313 313 316 316 316 316 317 316 314 312 313 315 316 315 316 316 316 316 314 312 311 312 312 312 312 310 310 309 309 308 307 306 305 304 303 303 303 303
324 317 314 315 314 311 311 312 313 313 317 316 315 315 315 315 315 316 315 317 316 316 315 315 315 314 312 312 313 311 311 313 311 311 310 308 307 302 304 304 304 305 304
322 317 315 315 314 313 312 313 314 314 315 314 313 312 312 313 313 317 318 319 319 318 316 315 314 315 313 314 313 313 304 296 310 307 310 309 308 306 305 303 304 305 304
321 319 316 316 316 316 315 314 315 315 315 316 315 314 315 316 317 318 316 316 318 320 319 316 316 317 318 315 316 300 290 293 303 302 311 310 307 305 305 305 305 305 303
Wind_Speed
13 12 11 8 9 7 6 6 6 6 6 4 6 5 5 2 3 2 3 3 2 2 2 4 5 3 2 3 4 2 2 3 4 1 1 1 3 6 6 6 7 7 5
13 13 12 10 8 8 7 8 7 7 7 6 6 5 4 3 3 3 4 3 5 4 6 4 5 2 1 3 3 5 2 2 3 3 2 2 2 1 4 7 5 7 6
14 13 14 12 11 10 9 8 9 8 8 7 7 7 5 5 4 3 5 6 6 5 5 5 7 2 1 1 1 0 1 2 4 3 2 1 2 4 5 6 7 7 6
15 16 14 15 14 13 12 10 8 9 7 7 6 6 6 5 5 6 5 7 5 5 5 2 4 5 3 2 1 2 1 3 3 2 2 2 3 4 4 5 3 3 4
12 11 14 15 14 12 11 11 9 8 8 7 6 6 5 5 4 5 5 5 5 4 2 5 4 6 8 5 2 2 2 3 2 2 2 2 3 3 4 4 5 6 4
5 10 8 10 11 10 7 7 8 8 8 8 7 7 6 3 4 3 6 6 3 1 1 5 5 7 8 10 13 15 10 2 2 2 1 2 2 2 3 4 7 6 4
5 5 6 5 7 14 15 11 9 8 7 9 7 7 7 6 5 3 4 4 4 3 4 4 4 4 6 6 10 13 15 15 8 1 3 2 2 2 0 3 8 8 3
4 5 6 6 5 9 14 11 7 6 7 6 6 7 8 5 4 1 2 1 5 6 6 5 5 5 4 6 8 11 10 10 8 6 6 3 3 3 1 1 4 7 9
5 6 6 6 5 5 6 6 4 3 2 2 3 2 9 6 4 2 3 5 7 7 6 5 7 5 5 5 10 10 7 6 9 12 11 10 9 10 4 5 6 9 4
6 5 5 4 4 3 4 6 4 4 7 5 6 6 9 6 3 4 5 5 8 7 6 6 11 6 6 8 9 10 8 4 4 4 4 7 8 8 12 6 0 4 4
6 5 4 5 5 5 5 4 7 9 9 8 9 5 6 4 3 3 4 3 7 6 5 3 3 8 10 11 10 6 6 7 7 5 4 3 4 4 4 4 4 4 3
5 4 5 6 4 4 9 5 10 4 10 8 8 6 4 4 7 9 10 10 7 8 5 4 4 11 11 12 10 13 13 9 5 4 4 4 4 4 3 4 6 6 4
8 8 7 8 7 8 7 5 7 9 2 7 6 6 4 4 6 11 15 16 12 6 5 8 11 12 13 11 12 12 7 4 4 5 4 2 2 2 3 4 8 10 7
10 10 8 8 9 8 7 6 6 6 6 6 6 6 5 5 5 4 5 9 15 11 11 6 7 7 8 7 6 4 3 3 4 4 3 2 2 2 2 3 4 3 4
7 7 8 7 8 9 7 6 5 3 4 6 5 5 6 5 3 5 4 5 5 7 8 4 3 3 4 4 4 3 3 3 4 3 2 2 2 2 2 2 2 3 4
7 5 4 4 4 4 5 6 13 8 8 12 10 5 3 9 8 8 5 10 12 10 3 4 4 3 5 4 4 2 1 3 2 1 2 2 2 3 2 2 3 3 4
8 5 5 4 4 4 3 4 6 7 12 13 9 10 9 8 8 5 5 6 8 4 2 3 3 4 4 4 4 3 3 3 4 4 4 3 3 2 3 3 3 4 3
6 7 5 4 4 4 5 5 4 3 4 3 8 6 8 9 9 8 8 8 2 1 1 4 4 5 4 5 4 4 3 4 3 4 4 4 3 3 2 2 2 3 3
7 5 5 4 4 4 4 4 4 5 4 4 3 4 4 5 7 6 3 2 3 3 4 5 4 5 4 5 4 4 4 3 3 3 3 3 4 3 3 4 4 5 5
6 11 9 7 5 6 5 4 4 5 5 4 3 3 3 3 1 3 4 3 4 3 4 6 4 5 5 5 5 5 4 3 3 2 2 3 2 2 3 5 4 3 3
4 4 7 5 6 7 8 6 6 5 5 4 4 5 8 4 4 4 4 3 6 5 5 5 5 5 5 5 4 4 4 3 2 4 4 3 3 3 3 4 3 1 5
4 5 5 5 4 4 6 9 9 8 7 7 4 5 11 4 4 4 4 5 5 7 6 6 5 5 5 5 5 4 4 5 4 4 3 3 3 2 2 2 2 3 3
4 6 5 3 5 6 5 7 6 6 6 8 7 6 5 5 5 5 6 5 6 6 5 5 6 5 5 5 5 5 5 6 6 6 5 4 3 2 2 2 2 3 3
4 6 6 5 5 4 4 4 5 8 11 9 8 8 8 7 6 7 6 6 6 6 6 6 6 8 7 5 4 4 4 5 5 6 8 5 4 2 3 2 0 2 5
5 5 6 6 6 6 5 5 5 6 7 9 7 5 6 6 5 6 5 7 8 8 7 6 6 8 10 10 8 7 7 13 8 8 5 6 6 6 2 3 2 1 4
5 4 5 6 6 6 6 6 5 6 6 7 9 7 8 7 5 5 6 6 5 7 9 5 7 9 10 9 9 11 9 11 9 10 5 5 6 5 5 5 7 3 4
Wind_Direction
191 194 193 193 191 191 198 215 195 172 204 186 218 240 241 242 260 148 183 234 128 344 308 252 277 282 320 348 8 10 74 96 127 253 270 358 120 132 119 118 116 107 93
206 189 192 191 185 194 193 213 208 190 182 205 212 235 221 208 255 237 188 149 181 229 255 289 260 236 88 68 57 20 21 141 124 150 221 265 100 152 139 133 114 97 93
197 196 194 190 187 194 202 207 208 192 191 192 189 212 209 211 235 234 196 182 198 221 255 263 240 205 217 179 95 25 87 75 49 121 153 100 102 122 86 67 82 86 87
197 200 191 191 193 194 199 206 198 190 178 190 198 203 207 213 229 244 232 179 212 236 238 23 57 102 94 308 179 116 39 100 117 121 80 63 92 61 95 130 130 117 146
195 190 201 195 192 191 193 199 187 179 181 185 187 196 207 215 236 241 229 205 219 256 37 106 68 83 72 61 115 54 118 122 119 112 138 128 163 154 185 164 143 145 122
189 212 215 211 188 197 198 222 185 171 175 181 191 186 200 184 103 40 240 187 196 197 50 104 121 102 80 81 80 69 54 83 110 129 146 152 161 191 159 158 144 143 163
272 273 256 240 199 189 225 219 189 179 171 188 187 189 187 137 123 102 26 132 131 122 90 76 131 129 127 107 92 68 51 40 65 90 103 45 97 50 156 149 168 172 119
275 279 276 266 226 188 193 226 199 186 197 192 197 196 118 98 83 69 121 143 102 91 87 59 111 85 32 125 96 80 65 52 38 64 72 61 46 312 262 246 117 102 100
295 286 278 272 246 214 197 179 147 49 12 72 58 176 132 138 172 186 198 163 120 98 79 58 79 79 14 109 118 108 100 88 59 66 68 58 44 33 35 120 127 129 123
1 2 357 11 34 299 210 178 178 160 149 111 77 61 118 121 94 128 137 140 129 124 104 81 66 85 60 89 130 130 114 102 100 60 24 30 23 27 37 37 124 128 119
344 350 12 30 51 64 58 100 116 121 122 114 101 79 76 62 71 67 74 132 133 123 110 101 87 85 81 78 94 113 123 126 100 87 78 58 53 28 27 43 68 110 99
26 2 55 47 55 67 88 99 87 88 130 120 114 97 63 55 43 68 72 82 102 121 129 117 109 102 94 91 93 115 120 116 106 88 69 49 46 43 40 51 53 74 76
45 53 56 76 64 62 72 93 120 116 101 103 125 100 97 79 77 69 93 93 79 91 102 109 106 102 97 89 111 116 115 108 114 110 110 94 83 64 23 46 72 73 69
53 43 41 59 59 58 71 69 79 95 109 112 107 125 117 95 90 92 97 99 100 102 108 114 106 96 92 101 90 95 94 108 123 111 99 98 91 62 47 36 69 63 65
72 63 58 51 65 70 48 48 68 56 97 111 104 109 117 111 103 101 118 122 114 116 115 111 92 83 99 99 90 108 131 131 119 111 105 129 107 112 117 130 103 62 87
106 106 95 85 71 71 88 75 47 38 67 88 87 94 38 105 125 110 110 95 137 156 106 114 107 123 124 131 138 134 122 145 148 128 126 111 98 85 96 105 103 103 109
130 139 120 129 127 114 86 86 92 44 61 62 77 101 106 125 98 104 196 179 164 121 104 135 139 163 162 169 172 165 182 191 154 139 129 136 125 86 90 88 105 114 105
129 146 144 155 152 145 128 122 116 113 110 84 49 83 87 113 108 84 82 100 99 314 236 183 182 191 181 157 143 143 121 80 100 117 119 131 125 133 121 93 105 136 139
161 170 166 178 184 154 139 132 123 109 95 110 111 92 113 107 113 123 122 199 193 208 197 129 139 115 122 131 140 128 120 137 132 125 144 163 176 149 126 147 126 141 134
185 181 179 185 178 163 163 157 145 136 138 139 141 162 130 96 155 196 212 218 223 217 141 132 129 124 126 121 119 125 125 122 125 143 163 150 113 120 169 159 149 156 106
177 179 165 153 162 170 170 164 161 156 156 165 178 171 181 164 213 225 224 201 155 135 128 128 135 131 133 133 138 141 152 167 153 140 146 110 103 83 112 129 159 138 137
172 158 171 177 193 195 154 165 172 176 171 176 170 181 181 194 244 284 228 114 129 133 147 143 145 151 160 166 176 181 190 198 183 151 126 144 148 114 110 110 91 123 148
174 173 203 199 186 170 167 169 170 167 156 163 165 164 175 204 223 229 188 162 153 146 150 152 156 170 186 193 187 181 169 181 178 147 147 151 146 128 139 136 158 154 177
224 186 203 188 163 158 176 185 190 164 156 167 173 175 186 202 214 196 186 174 157 166 168 169 174 172 176 184 176 181 150 143 158 143 135 135 123 152 144 135 125 174 152
213 206 201 170 169 172 188 219 206 180 158 173 178 179 191 206 216 187 181 171 175 171 176 179 178 172 180 181 183 174 164 152 161 153 131 120 117 97 123 88 70 126 161
212 218 234 167 171 180 178 202 209 193 189 168 187 190 196 205 189 167 156 166 171 170 183 182 186 189 177 189 162 147 148 159 145 141 149 136 127 122 123 117 91 90 128